Stations météo

Publicité
Perpignan, France (7747): Température de l'air & dewpoint: 16.02.2017 07:00:00 - 22.02.2017 07:00:00 (CET)Perpignan, France (7747): Température de l'air 5cm: 16.02.2017 07:00:00 - 22.02.2017 07:00:00 (CET)Perpignan, France (7747): Température de l'air -20cm & Température de l'air -100cm: 16.02.2017 07:00:00 - 22.02.2017 07:00:00 (CET)Perpignan, France (7747): Vitesse du vent & gusts: 16.02.2017 07:00:00 - 22.02.2017 07:00:00 (CET)Perpignan, France (7747): Direction du vent: 16.02.2017 07:00:00 - 22.02.2017 07:00:00 (CET)Perpignan, France (7747): reduced air pressure: 16.02.2017 07:00:00 - 22.02.2017 07:00:00 (CET)Perpignan, France (7747): visibility: 16.02.2017 07:00:00 - 22.02.2017 07:00:00 (CET)Perpignan, France (7747): Ensoleillement: 16.02.2017 07:00:00 - 22.02.2017 07:00:00 (CET)Perpignan, France (7747): Quantités de précipitations: 16.02.2017 07:00:00 - 22.02.2017 07:00:00 (CET)
Date & Time tt [°C] td [°C] tt 5cm [°C] tt -20cm [°C] tt -100cm [°C] ff [km/h] ff [knt] fx [km/h] fx [knt] dd ppp [hPa] vv [km] sd [min] rr [mm]
22.02.2017 07:00:00 9,5 4,7 5,8 11,5 11,9 7 4 18 10 SSW 1022,0 52 0 0,0
22.02.2017 06:00:00 11,1 6,6 5,5 11,6 11,9 8 5 14 8 W 1022,3 53 0 0,0
22.02.2017 05:00:00 11,3 6,4 7,2 11,8 11,9 3 2 18 10 W 1022,3 58 0 0,0
22.02.2017 04:00:00 11,9 6,6 6,2 11,8 11,9 8 4 29 15 NNW 1022,3 58 0 0,0
22.02.2017 03:00:00 10,3 6,4 6,3 12,0 11,9 7 4 23 13 WSW 1022,5 50 0 0,0
22.02.2017 02:00:00 11,2 6,7 8,9 12,1 11,9 13 7 29 16 W 1022,8 59 0 0,0
22.02.2017 01:00:00 13,0 7,0 10,0 12,2 11,9 14 8 33 18 NW 1022,8 60 0 0,0
22.02.2017 00:00:00 13,0 7,0 11,4 12,3 11,9 18 10 36 20 WNW 1022,7 58 0 0,0
21.02.2017 23:00:00 13,0 7,2 11,5 12,4 11,8 23 12 36 20 WNW 1022,5 60 0 0,0
21.02.2017 22:00:00 13,4 7,2 10,6 12,6 11,9 10 5 32 17 NW 1022,9 59 0 0,0
21.02.2017 21:00:00 13,8 7,1 11,9 12,7 11,9 14 7 28 15 WNW 1022,5 57 0 0,0
21.02.2017 20:00:00 14,5 7,1 12,0 12,7 11,9 14 8 33 18 W 1022,3 60 0 0,0
21.02.2017 19:00:00 15,4 6,9 12,0 12,7 11,9 22 12 33 18 WNW 1022,0 60 6 0,0
21.02.2017 18:00:00 17,8 6,9 17,2 12,6 11,9 22 12 36 19 NNW 1021,2 59 60 0,0
21.02.2017 17:00:00 19,0 7,1 19,2 12,4 11,8 25 13 48 26 NW 1020,9 60 60 0,0
21.02.2017 16:00:00 20,0 7,0 22,0 12,1 11,8 33 18 49 26 NW 1021,0 48 60 0,0
21.02.2017 15:00:00 19,5 7,2 20,0 11,8 11,9 31 17 48 26 NW 1021,7 47 60 0,0
21.02.2017 14:00:00 18,6 7,7 20,7 11,4 11,9 24 13 42 23 NW 1022,6 60 60 0,0
21.02.2017 13:00:00 17,9 7,3 20,5 11,0 11,8 20 11 41 22 NNW 1023,7 60 60 0,0
21.02.2017 12:00:00 16,6 7,0 19,6 10,8 11,8 24 13 48 26 NNW 1024,5 60 60 0,0
21.02.2017 11:00:00 16,0 7,5 18,7 10,7 11,8 11 6 42 23 W 1024,8 60 60 0,0
21.02.2017 10:00:00 14,3 6,4 15,1 10,7 11,8 12 7 29 16 NW 1025,0 60 60 0,0
21.02.2017 09:00:00 12,1 5,9 10,1 10,7 11,8 19 10 27 15 NW 1024,8 56 60 0,0
21.02.2017 08:00:00 10,5 4,8 7,5 10,8 11,8 16 9 35 19 NW 1024,7 59 1 0,0
21.02.2017 07:00:00 9,9 4,7 7,0 10,9 11,8 6 3 35 19 WSW 1024,8 55 0 0,0
21.02.2017 06:00:00 10,8 4,9 9,1 11,1 11,9 21 11 41 22 NW 1024,8 60 0 0,0
21.02.2017 05:00:00 10,5 4,6 8,9 11,1 11,8 16 9 36 20 NW 1025,3 39 0 0,0
21.02.2017 04:00:00 10,2 4,3 5,5 11,3 11,8 15 8 26 14 W 1025,4 39 0 0,0
21.02.2017 03:00:00 10,1 3,8 7,7 11,4 11,8 9 5 29 15 W 1025,4 38 0 0,0
21.02.2017 02:00:00 10,7 4,2 9,2 11,4 11,8 16 8 53 29 WNW 1025,2 36 0 0,0
21.02.2017 01:00:00 10,8 4,3 9,7 11,6 11,8 31 17 54 29 NW 1024,6 35 0 0,0
21.02.2017 00:00:00 10,8 4,5 9,9 11,7 11,8 28 15 55 30 WNW 1025,0 35 0 0,0
20.02.2017 23:00:00 11,2 4,4 10,1 11,8 11,8 28 15 55 30 NW 1025,3 35 0 0,0
20.02.2017 22:00:00 11,5 4,2 10,6 12,0 11,9 32 18 59 32 NW 1025,1 39 0 0,0
20.02.2017 21:00:00 11,4 4,4 10,6 12,1 11,8 30 16 55 30 NW 1025,2 40 0 0,0
20.02.2017 20:00:00 11,8 4,5 11,0 12,1 11,8 30 16 54 29 NW 1024,9 41 0 0,0
20.02.2017 19:00:00 12,7 4,6 11,6 12,1 11,8 22 12 40 22 NW 1024,8 46 12 0,0
20.02.2017 18:00:00 14,3 4,0 13,7 12,2 11,8 27 15 44 24 NNW 1024,2 43 60 0,0
20.02.2017 17:00:00 - - 17,1 - - 26 14 49 27 NNW - 60 60 -
20.02.2017 16:00:00 17,0 3,6 19,0 11,8 11,8 20 11 50 27 NW 1023,9 51 60 0,0
20.02.2017 15:00:00 17,0 2,9 17,9 11,5 11,8 27 14 46 25 NW 1024,1 50 60 0,0
20.02.2017 14:00:00 16,7 2,3 18,8 11,2 11,8 25 13 42 23 NNW 1024,8 55 60 0,0
20.02.2017 13:00:00 16,0 2,7 19,3 10,8 11,8 19 10 39 21 NNW 1025,9 60 60 0,0
20.02.2017 12:00:00 15,0 2,5 17,9 10,6 11,8 16 9 36 20 NNW 1026,7 60 60 0,0
20.02.2017 11:00:00 13,7 3,5 17,4 10,5 11,8 17 9 36 19 NNW 1026,8 60 60 0,0
20.02.2017 10:00:00 13,3 3,4 15,0 10,5 11,8 14 8 28 15 WNW 1026,7 34 60 0,0
20.02.2017 09:00:00 11,5 4,7 8,9 10,6 11,8 13 7 26 14 W 1026,0 42 60 0,0
20.02.2017 08:00:00 9,4 4,6 7,0 10,7 11,8 11 6 23 12 WSW 1026,1 26 7 0,0
20.02.2017 07:00:00 9,5 4,9 6,6 10,8 11,8 11 6 23 12 W 1026,0 27 0 0,0
20.02.2017 06:00:00 10,5 5,3 7,4 10,9 11,8 11 6 22 12 WNW 1025,8 30 0 0,0
20.02.2017 05:00:00 11,1 5,0 9,4 11,0 11,9 14 7 30 16 WNW 1025,4 37 0 0,0
20.02.2017 04:00:00 11,6 5,0 10,1 11,1 11,8 16 8 35 19 NW 1025,5 40 0 0,0
20.02.2017 03:00:00 11,9 4,8 10,3 11,2 11,8 24 13 41 22 NW 1025,6 35 0 0,0
20.02.2017 02:00:00 11,8 4,7 9,4 11,3 11,8 19 10 38 21 NW 1026,1 37 0 0,0
20.02.2017 01:00:00 12,0 4,9 9,7 11,4 11,8 17 9 35 19 NW 1026,2 36 0 0,0
20.02.2017 00:00:00 11,8 6,1 8,9 11,6 11,8 10 5 34 18 NW 1026,2 25 0 0,0
19.02.2017 23:00:00 11,8 6,1 6,7 11,7 11,8 10 5 20 11 NNW 1026,4 25 0 0,0
19.02.2017 22:00:00 10,9 5,8 4,7 11,9 11,9 6 3 10 6 NNW 1026,2 24 0 0,0
19.02.2017 21:00:00 10,6 4,7 7,2 12,0 11,9 9 5 18 10 NNW 1026,2 33 0 0,0
19.02.2017 20:00:00 11,4 4,6 9,8 12,1 11,8 10 6 29 16 WNW 1026,0 40 0 0,0
19.02.2017 19:00:00 13,3 3,9 11,7 12,1 11,8 16 9 27 14 WNW 1025,6 54 11 0,0
19.02.2017 18:00:00 15,5 2,3 14,1 12,0 11,8 16 9 26 14 NW 1025,2 60 60 0,0
19.02.2017 17:00:00 15,1 8,6 17,1 11,8 11,9 6 3 11 6 SE 1025,0 20 60 0,0
19.02.2017 16:00:00 15,2 8,4 17,6 11,5 11,9 7 4 17 9 ENE 1025,2 20 60 0,0
19.02.2017 15:00:00 15,0 8,9 16,9 11,1 11,9 13 7 22 12 E 1025,3 35 58 0,0
19.02.2017 14:00:00 15,9 7,1 19,8 10,6 11,9 4 2 11 6 ESE 1025,9 20 58 0,0
19.02.2017 13:00:00 15,5 8,7 19,9 10,3 11,9 5 3 14 7 SE 1026,8 20 60 0,0
19.02.2017 12:00:00 14,5 7,5 19,9 10,0 11,8 2 1 10 5 ESE 1027,5 41 60 0,0
19.02.2017 11:00:00 12,5 8,0 13,9 9,9 11,9 5 3 9 5 N 1027,7 35 58 0,0
19.02.2017 10:00:00 8,8 7,7 6,6 9,9 11,9 0 0 6 3 N 1027,6 30 18 0,0
19.02.2017 09:00:00 5,8 5,2 2,7 10,0 11,9 4 2 6 3 WSW 1027,2 19 0 0,0
19.02.2017 08:00:00 5,1 4,4 3,2 10,1 11,9 4 2 7 4 W 1026,7 20 0 0,0
19.02.2017 07:00:00 4,4 3,5 0,3 10,3 11,9 2 1 6 3 E 1026,1 14 0 0,0
19.02.2017 06:00:00 4,9 3,9 0,4 10,4 11,9 5 3 6 3 W 1025,5 18 0 0,0
19.02.2017 05:00:00 5,3 4,6 1,3 10,6 11,8 4 2 8 5 WSW 1025,2 18 0 0,0
19.02.2017 04:00:00 5,0 4,0 1,1 10,7 11,9 4 2 6 4 W 1025,1 18 0 0,0
19.02.2017 03:00:00 5,5 4,5 1,3 10,9 11,9 4 2 9 5 W 1025,0 22 0 0,0
19.02.2017 02:00:00 5,5 4,1 1,6 11,1 11,9 0 0 9 5 N 1024,8 22 0 0,0
19.02.2017 01:00:00 5,9 4,9 3,1 11,2 11,9 7 4 9 5 W 1024,6 20 0 0,0
19.02.2017 00:00:00 5,7 4,5 3,3 11,4 11,9 7 4 12 7 W 1024,4 20 0 0,0
18.02.2017 23:00:00 5,6 3,9 3,4 11,6 11,9 7 4 9 5 WSW 1024,3 15 0 0,0
18.02.2017 22:00:00 7,2 4,3 4,4 11,8 11,9 8 4 9 5 NW 1023,7 41 0 0,0
18.02.2017 21:00:00 7,1 4,1 3,0 12,0 11,9 5 3 7 4 N 1023,6 23 0 0,0
18.02.2017 20:00:00 8,0 4,2 3,1 12,1 11,9 6 3 7 4 W 1023,1 46 0 0,0
18.02.2017 19:00:00 10,0 3,9 4,5 12,2 11,9 5 3 5 3 ENE 1022,7 30 0 0,0
18.02.2017 18:00:00 11,6 2,9 7,9 12,0 11,8 3 1 10 5 ENE 1022,2 57 0 0,0
18.02.2017 17:00:00 12,7 2,2 13,9 11,9 11,9 3 2 18 10 ENE 1021,8 60 26 0,0
18.02.2017 16:00:00 13,5 4,9 15,2 11,7 11,9 11 6 18 10 ENE 1021,6 57 24 0,0
18.02.2017 15:00:00 13,5 5,6 14,6 11,5 11,9 13 7 21 11 ENE 1021,6 43 28 0,0
18.02.2017 14:00:00 13,5 7,7 15,8 11,1 11,9 14 8 25 14 E 1021,9 34 53 0,0
18.02.2017 13:00:00 14,3 7,3 18,7 10,8 11,8 10 5 19 10 E 1022,6 43 60 0,0
18.02.2017 12:00:00 13,0 7,7 17,4 10,6 11,9 11 6 16 9 NE 1023,3 37 60 0,0
18.02.2017 11:00:00 12,1 5,9 14,5 10,5 11,8 2 1 9 5 N 1023,5 49 44 0,0
18.02.2017 10:00:00 10,0 6,0 8,4 10,6 11,8 2 1 9 5 N 1023,2 45 34 0,0
18.02.2017 09:00:00 7,3 5,3 3,9 10,7 11,8 6 3 11 6 SW 1022,9 41 0 0,0
18.02.2017 08:00:00 5,8 4,1 2,5 10,8 11,8 7 4 11 6 WSW 1022,6 38 0 0,0
18.02.2017 07:00:00 5,5 4,0 1,8 11,0 11,8 6 3 10 5 WSW 1022,4 49 0 0,0
18.02.2017 06:00:00 5,8 4,1 2,3 11,1 11,8 6 4 8 4 WSW 1022,5 42 0 0,0
18.02.2017 05:00:00 5,9 4,1 3,0 11,4 11,9 6 4 10 5 W 1022,8 40 0 0,0
18.02.2017 04:00:00 6,6 4,8 3,8 11,5 11,8 9 5 13 7 W 1023,2 44 0 0,0
18.02.2017 03:00:00 7,4 4,9 4,2 11,6 11,8 6 3 8 4 W 1023,8 53 0 0,0
18.02.2017 02:00:00 9,1 5,3 4,9 11,8 11,8 2 1 24 13 SSW 1024,1 53 0 0,0
18.02.2017 01:00:00 10,5 5,5 7,2 11,9 11,8 8 5 19 11 SW 1024,1 57 0 0,0
18.02.2017 00:00:00 12,5 5,2 10,9 12,0 11,8 16 8 27 15 NW 1024,1 60 0 0,0
17.02.2017 23:00:00 12,1 5,7 8,3 12,3 11,8 21 11 25 14 WNW 1024,3 60 0 0,0
17.02.2017 22:00:00 11,0 4,7 5,7 12,4 11,8 7 4 14 8 NW 1024,8 60 0 0,0
17.02.2017 21:00:00 10,4 6,5 4,4 12,6 11,8 8 4 11 6 WNW 1024,6 55 0 0,0
17.02.2017 20:00:00 10,1 7,7 5,0 12,7 11,8 3 1 9 5 N 1024,4 24 0 0,0
17.02.2017 19:00:00 11,7 7,6 6,8 12,7 11,8 4 2 7 4 WNW 1024,3 45 5 0,0
17.02.2017 18:00:00 14,0 8,2 12,9 12,7 11,8 5 3 11 6 SE 1024,0 48 60 0,0
17.02.2017 17:00:00 15,7 8,7 17,5 12,5 11,8 9 5 14 8 ESE 1024,3 53 60 0,0
17.02.2017 16:00:00 16,9 8,1 20,0 12,2 11,8 8 5 16 8 ESE 1024,6 60 60 0,0
17.02.2017 15:00:00 17,0 8,4 18,8 11,8 11,8 8 4 13 7 ESE 1025,2 47 60 0,0
17.02.2017 14:00:00 17,1 9,0 20,5 11,4 11,8 7 4 13 7 ESE 1026,1 58 60 0,0
17.02.2017 13:00:00 16,8 9,9 20,6 11,1 11,8 9 5 16 9 E 1027,0 58 60 0,0
17.02.2017 12:00:00 16,6 7,8 22,5 10,8 11,7 6 3 10 6 E 1027,9 42 60 0,0
17.02.2017 11:00:00 14,2 7,9 20,2 10,7 11,7 0 0 8 4 N 1028,2 38 60 0,0
17.02.2017 10:00:00 11,7 7,6 15,0 10,8 11,7 0 0 4 2 N 1028,5 47 60 0,0
17.02.2017 09:00:00 7,9 6,7 2,4 10,9 11,7 2 1 7 4 WSW 1028,8 54 60 0,0
17.02.2017 08:00:00 5,1 4,2 0,7 11,1 11,8 4 2 6 3 W 1028,8 60 2 0,0
17.02.2017 07:00:00 4,6 3,7 1,0 11,3 11,7 0 0 6 3 N 1028,5 57 0 0,0
17.02.2017 06:00:00 4,9 4,2 1,2 11,5 11,7 5 3 6 3 W 1028,7 47 0 0,0
17.02.2017 05:00:00 5,5 4,9 1,4 11,7 11,7 2 1 5 3 WSW 1028,9 18 0 0,0
17.02.2017 04:00:00 6,1 5,4 2,0 11,9 11,7 0 0 4 2 N 1029,0 6 0 0,0
17.02.2017 03:00:00 6,7 6,0 2,5 12,0 11,7 0 0 5 3 N 1029,5 7 0 0,0
17.02.2017 02:00:00 7,8 6,9 3,8 12,2 11,7 2 1 16 9 NNW 1030,1 14 0 0,0
17.02.2017 01:00:00 8,8 8,0 5,4 12,4 11,7 12 6 16 8 WSW 1030,5 15 0 0,0
17.02.2017 00:00:00 7,5 6,9 3,3 12,6 11,7 9 5 13 7 WSW 1030,9 9 0 0,0
16.02.2017 23:00:00 7,9 7,1 3,7 12,8 11,7 2 1 6 3 NW 1031,3 7 0 0,0
16.02.2017 22:00:00 8,1 7,2 4,3 13,0 11,7 5 3 6 3 W 1031,5 9 0 0,0
16.02.2017 21:00:00 9,2 8,3 5,5 13,2 11,7 5 3 7 4 WNW 1031,4 9 0 0,0
16.02.2017 20:00:00 10,4 8,8 6,7 13,3 11,6 0 0 6 3 N 1031,2 14 0 0,0
16.02.2017 19:00:00 11,2 9,5 10,0 13,3 11,6 5 3 11 6 NNE 1031,2 19 0 0,0
16.02.2017 18:00:00 12,5 9,9 12,2 13,3 11,6 6 3 11 6 NE 1030,8 27 14 0,0
16.02.2017 17:00:00 13,4 10,0 15,0 13,1 11,6 10 5 15 8 NE 1030,7 32 20 0,0
16.02.2017 16:00:00 15,0 10,0 17,2 12,9 11,6 8 4 16 9 E 1030,7 20 54 0,0
16.02.2017 15:00:00 14,8 10,0 17,1 12,7 11,6 6 3 19 11 ENE 1030,9 20 55 0,0
16.02.2017 14:00:00 14,8 9,6 16,5 12,4 11,6 8 4 13 7 ESE 1031,6 28 52 0,0
16.02.2017 13:00:00 13,4 10,4 15,1 12,3 11,6 8 5 19 11 ENE 1032,5 15 16 0,0
16.02.2017 12:00:00 13,8 9,2 15,7 12,0 11,6 3 1 8 4 SSW 1033,2 42 30 0,0
16.02.2017 11:00:00 13,0 9,4 13,3 12,0 11,5 3 2 13 7 WNW 1033,3 37 46 0,0
16.02.2017 10:00:00 10,8 8,7 10,3 12,0 11,6 8 5 12 6 W 1033,4 58 0 0,0
16.02.2017 09:00:00 9,7 8,5 9,5 12,1 11,5 7 4 9 5 SW 1033,3 24 0 0,0
16.02.2017 08:00:00 9,5 8,7 8,8 12,2 11,5 6 4 10 5 WSW 1032,9 25 0 0,2
16.02.2017 07:00:00 10,0 9,2 8,6 12,2 11,5 4 2 10 5 NW 1032,5 6 0 0,0

tt = Température de l'air
td = dewpoint
tt 5cm = Température de l'air 5cm
tt -20cm = Température de l'air -20cm
tt -100cm = Température de l'air -100cm
ff = Vitesse du vent
fx = gusts
dd = Direction du vent
ppp = reduced air pressure
vv = visibility
sd = Ensoleillement
rr = Quantités de précipitations

stations d'obs. à proximité